SCP
0 0 0 0 0 0 0 0 0 0 0 0 0 0 0 -0 -0 0 0 0 0 0 0 0 0 0 0 0 0 0 0 0 0 0 0 0 0 0 0 0 0 0 0
0 0 0 0 0 0 0 0 0 0 0 0 0 0 0 0 -0 -0 0 0 0 0 0 0 0 0 0 0 0 0 0 0 0 0 0 0 0 0 0 0 0 0 0
0 0 0 0 0 0 0 0 0 0 0 0 0 0 0 0 -0 -0 -0 0 0 0 0 0 0 0 0 0 0 0 0 0 0 0 0 0 0 0 0 0 0 0 0
0 0 0 0 0 0 0 0 0 0 0 0 0 0 0 0 -0 -0 -0 0 0 0 0 0 0 0 0 0 0 0 0 0 0 0 0 0 0 0 0 0 0 0 0
0 0 0 0 0 0 0 0 0 0 0 0 0 0 0 0 0 0 0 0 0 0 0 0 0 0 0 0 0 0 0 0 0 0 0 0 0 0 0 0 0 0 0
0 0 0 0 0 0 0 0 0 0 0 0 0 0 0 0 0 0 0 0 0 0 0 0 0 0 0 0 0 0 0 0 0 0 0 0 0 0 0 0 0 0 0
0 0 0 0 0 0 0 0 0 0 0 0 0 0 0 0 0 0 0 0 0 0 0 0 0 0 0 0 0 0 0 0 0 0 0 0 0 0 0 0 0 0 0
0 0 0 0 0 0 0 0 0 0 0 0 0 0 0 0 0 0 0 0 0 0 0 0 0 0 0 0 0 0 0 0 0 0 0 0 0 0 0 0 0 0 0
0 0 0 0 0 0 0 0 0 0 0 0 0 0 0 0 0 0 0 0 0 0 0 0 0 0 0 0 0 0 0 0 0 0 0 0 0 0 0 0 0 0 0
0 0 0 0 0 0 0 0 0 0 0 0 0 0 0 0 0 0 0 0 0 0 0 0 0 0 0 0 0 0 0 0 0 0 0 0 0 0 0 0 0 0 0
0 0 0 0 0 0 0 0 0 0 0 0 0 0 0 0 0 0 0 0 0 0 0 0 0 0 0 0 0 0 0 0 0 0 0 0 0 0 0 0 0 0 0
0 0 0 0 0 0 0 0 0 0 0 0 0 0 0 0 0 0 0 0 0 0 0 0 0 0 0 0 0 0 0 0 0 0 0 0 0 0 0 0 0 0 0
0 0 0 0 0 0 0 0 0 0 0 0 0 0 0 0 0 0 0 0 0 0 0 0 0 0 0 0 0 0 0 0 0 0 0 0 0 0 0 0 0 0 0
0 0 0 0 0 0 0 0 0 0 0 0 0 0 0 0 0 0 0 0 0 0 0 0 0 0 0 0 0 0 0 0 0 0 0 0 0 0 0 0 0 0 0
0 0 0 0 0 0 0 0 0 0 0 0 0 0 0 0 0 0 0 0 0 0 0 0 0 0 0 0 0 0 0 0 0 0 0 0 0 0 0 0 0 0 0
0 0 0 0 0 0 0 0 0 0 0 0 0 0 0 0 0 0 0 0 0 0 0 0 0 0 0 0 0 0 0 0 0 0 0 0 0 0 0 0 0 0 0
0 0 0 0 0 0 0 0 0 0 0 0 0 0 0 0 0 0 0 0 0 0 0 0 0 0 0 0 0 0 0 0 0 0 0 0 0 0 0 0 0 0 0
0 0 0 0 0 0 0 0 0 0 0 0 0 0 0 0 0 0 0 0 0 0 0 0 0 0 0 0 0 0 0 0 0 0 0 0 0 0 0 0 0 0 0
0 0 0 0 0 0 0 0 0 0 0 0 0 0 0 0 0 0 0 0 0 0 0 0 0 0 0 0 0 0 0 0 0 0 0 0 0 0 0 0 0 0 0
0 0 0 0 0 0 0 0 0 0 0 0 0 0 0 0 0 0 0 0 0 0 0 0 0 0 0 0 0 0 0 0 0 0 0 0 0 0 0 0 0 0 0
0 0 0 0 0 0 0 0 0 0 0 0 0 0 0 0 0 0 0 0 0 0 0 0 0 0 0 0 0 0 0 0 0 0 0 0 0 0 0 0 0 0 0
0 0 0 0 0 0 0 0 0 0 0 0 0 0 0 0 0 0 0 0 0 0 0 0 0 0 0 0 0 0 0 0 0 0 0 0 0 0 0 0 0 0 0
0 0 0 0 0 0 0 0 0 0 0 0 0 0 0 0 0 0 0 0 0 0 0 0 0 0 0 0 0 0 0 0 0 0 0 0 0 0 0 0 0 0 0
0 0 0 0 0 0 0 0 0 0 0 0 0 0 0 0 0 0 0 0 0 0 0 0 0 0 0 0 0 0 0 0 0 0 0 0 0 0 0 0 0 0 0
0 0 0 0 0 0 0 0 0 0 0 0 0 0 0 0 0 0 0 0 0 0 0 0 0 0 0 0 0 0 0 0 0 0 0 0 0 0 0 0 0 0 0
0 0 0 0 0 0 0 0 0 0 0 0 0 0 0 0 0 0 0 0 0 0 0 0 0 0 0 0 0 0 0 0 0 0 0 0 0 0 0 0 0 0 0
Wind_Speed
2 2 2 2 3 3 4 4 5 5 5 6 6 6 6 6 5 5 5 5 6 5 5 6 6 5 4 4 3 3 3 2 3 2 1 1 2 2 2 2 2 2 3
2 1 2 2 2 3 3 4 4 4 5 5 5 6 5 6 6 6 6 6 6 6 6 6 6 5 5 4 4 4 4 3 3 3 2 2 3 3 2 2 2 2 2
1 1 1 1 2 3 4 4 4 4 4 4 5 5 5 6 6 6 6 6 6 6 6 7 7 7 6 4 5 5 4 3 2 3 3 2 1 2 1 2 2 2 3
1 1 2 2 2 3 3 3 4 4 4 4 4 5 5 5 6 6 6 6 6 5 5 6 7 7 8 7 6 6 4 4 3 3 2 2 1 2 2 2 2 2 3
1 2 2 2 1 2 2 2 3 3 4 4 4 4 4 5 5 6 6 6 6 6 5 6 6 7 9 8 6 6 6 5 4 3 3 2 2 3 4 2 3 2 2
2 2 2 1 1 1 2 2 3 3 3 3 4 4 4 4 7 8 6 6 6 6 6 6 6 7 8 9 9 9 8 7 6 4 3 4 5 4 3 3 2 2 3
2 2 2 1 1 2 2 2 3 3 3 3 3 4 4 5 8 8 8 5 6 6 6 6 5 5 6 5 6 7 8 8 8 6 6 6 6 5 5 4 4 3 4
2 2 2 2 2 2 2 2 3 3 3 4 4 4 4 5 7 8 7 5 5 5 6 6 6 6 6 6 6 5 5 5 6 5 6 6 6 5 6 5 5 2 2
2 2 2 2 2 2 3 3 2 2 3 3 3 4 4 5 7 8 7 4 4 5 5 5 6 6 8 8 6 6 5 4 4 4 4 4 5 5 5 3 3 2 3
2 2 2 2 3 3 3 3 2 2 3 3 3 3 4 5 6 7 6 3 4 4 4 4 7 7 8 9 7 7 6 5 4 3 2 3 3 4 6 5 5 4 2
2 2 2 2 3 3 3 2 2 2 2 2 3 3 3 4 5 7 6 3 4 4 4 4 4 8 9 9 7 6 6 4 4 4 3 2 2 2 3 3 3 4 4
1 1 1 1 2 1 2 2 2 2 2 2 2 2 2 3 4 5 6 6 5 4 4 3 4 7 8 7 6 5 4 4 3 3 3 3 3 3 2 2 2 2 3
1 1 1 1 1 1 2 2 2 2 2 2 2 2 2 2 3 5 5 5 6 3 3 5 5 5 6 5 6 5 4 3 3 3 3 3 3 2 2 2 1 1 2
1 1 1 1 1 1 1 2 2 2 2 2 2 2 2 2 2 2 2 2 4 3 2 4 5 4 3 3 4 4 3 3 4 4 3 2 2 2 2 2 2 2 1
1 1 1 1 1 1 1 1 2 2 3 3 3 3 3 3 4 4 3 2 2 3 2 2 2 2 3 3 2 2 2 3 3 3 3 2 2 2 2 2 2 2 2
1 1 1 1 1 1 0 1 2 2 2 3 3 3 3 4 5 5 5 5 4 4 3 3 3 3 4 4 3 3 3 3 3 3 3 3 3 3 2 2 2 2 3
1 1 1 1 1 1 1 0 1 2 2 2 3 3 3 3 4 4 4 3 3 3 2 2 3 3 3 3 3 3 3 3 2 3 3 3 3 3 3 3 3 3 3
1 1 1 1 1 1 1 1 1 1 1 2 2 3 3 2 2 2 2 1 1 1 1 2 2 3 3 3 3 3 3 2 3 3 3 3 3 3 3 4 4 4 3
1 1 1 0 1 1 1 1 1 1 1 1 2 3 3 3 3 2 2 0 1 2 1 2 2 2 2 3 3 3 3 3 3 3 3 4 4 4 4 4 4 5 4
2 2 2 1 1 0 0 0 1 1 1 1 1 2 2 2 1 1 1 1 1 1 2 2 2 2 2 2 2 2 2 2 3 3 3 4 4 4 4 5 4 4 4
1 2 2 2 1 1 1 1 1 1 1 1 1 2 2 1 1 1 1 1 1 1 2 2 2 2 2 2 2 3 3 3 3 3 3 4 4 4 4 4 4 4 3
1 1 1 1 1 1 1 1 1 1 1 1 1 2 3 2 1 1 1 1 1 1 1 1 1 2 2 3 3 3 3 3 3 3 3 3 3 4 4 4 4 4 4
1 1 1 1 1 1 1 1 1 1 1 1 1 1 2 1 1 1 2 2 1 1 1 1 1 2 2 2 2 3 4 4 4 4 4 3 3 4 4 4 5 4 4
0 1 1 1 1 1 1 1 1 2 2 1 1 1 1 2 2 2 2 1 1 1 1 1 2 2 3 2 2 2 3 3 4 4 5 5 5 4 4 4 5 5 5
0 1 1 1 1 1 1 2 2 2 2 2 2 2 2 2 2 2 2 2 1 1 2 2 2 2 3 4 3 3 5 6 6 4 4 5 5 5 5 5 5 4 5
0 1 1 1 1 1 1 2 2 2 2 2 2 2 2 2 2 2 2 2 2 2 2 2 2 3 3 3 4 5 7 7 7 7 4 4 4 5 5 4 5 5 5
Wind_Direction
222 225 226 222 210 204 211 213 201 197 191 190 191 194 194 193 190 191 201 198 200 203 204 199 200 190 188 188 183 182 184 177 203 246 242 223 207 220 246 249 256 257 272
248 229 234 234 206 207 219 218 201 199 196 192 193 197 200 198 194 197 203 204 201 203 204 201 203 196 193 190 189 193 196 193 186 216 236 219 221 215 215 229 261 272 269
256 238 233 243 225 226 227 212 196 195 192 191 194 198 201 203 202 203 203 204 203 208 204 202 204 194 198 198 195 196 198 197 186 189 219 229 227 212 211 251 262 268 276
241 233 234 240 243 242 227 203 196 192 190 193 201 204 206 206 204 202 202 204 206 210 212 208 208 202 202 198 199 200 192 186 178 177 197 218 230 210 195 228 264 267 276
234 234 238 245 259 248 220 206 197 194 199 197 198 209 211 212 208 200 201 205 207 211 216 216 217 216 214 209 204 196 188 188 184 185 195 207 217 206 213 217 243 274 278
220 240 249 243 251 241 224 208 199 200 200 196 203 211 219 224 222 215 205 202 208 211 215 219 222 219 219 220 217 208 196 190 190 192 204 211 216 214 204 211 220 250 268
222 238 246 246 258 259 240 214 212 206 196 204 211 214 222 231 228 220 216 206 207 211 210 211 219 219 218 213 214 212 215 218 210 201 204 214 208 202 193 206 215 226 246
228 236 238 242 253 260 240 225 222 213 202 208 214 217 227 237 236 225 219 211 212 214 213 211 212 215 213 206 201 204 211 216 220 217 213 214 211 201 198 203 211 228 274
247 248 241 231 240 245 241 236 225 215 220 218 217 216 226 239 239 231 222 203 211 219 221 219 215 216 216 209 199 201 209 221 228 231 237 231 221 210 197 169 180 202 248
262 264 259 238 237 239 240 238 231 217 223 226 232 224 225 233 237 233 222 202 208 216 220 225 225 221 219 208 196 193 206 212 200 205 221 224 211 205 205 195 192 204 226
283 282 277 257 246 239 237 228 217 217 216 228 233 242 235 233 235 237 226 207 206 212 219 221 228 223 221 215 209 201 209 202 187 185 189 193 193 198 207 207 209 208 216
272 274 278 277 271 247 221 225 209 196 200 221 223 244 245 239 233 229 233 231 221 213 220 221 222 221 214 212 213 215 208 183 172 181 191 203 205 208 209 209 218 231 239
250 265 265 274 278 263 216 210 199 197 202 215 217 228 242 243 231 237 242 242 233 230 225 221 220 218 206 203 211 206 186 176 179 190 202 214 214 205 192 199 219 234 276
236 262 259 248 262 270 256 224 202 202 207 214 224 228 234 237 229 231 240 247 233 236 233 220 214 211 212 212 201 198 196 196 196 199 205 210 196 191 203 201 214 223 246
257 259 266 261 250 264 269 247 232 224 220 222 221 215 211 225 234 239 233 232 219 216 202 182 187 190 194 195 200 202 200 196 201 195 191 199 204 206 217 211 207 214 231
283 294 286 281 272 271 277 333 325 289 291 288 272 254 238 237 238 241 247 247 234 209 197 187 195 197 199 203 200 203 206 205 206 201 199 201 206 210 217 220 215 216 230
260 293 291 292 285 274 273 281 317 332 327 315 308 299 282 253 242 241 243 245 223 198 194 190 195 200 200 200 200 201 210 212 201 198 204 205 207 210 212 218 223 227 238
330 308 308 281 271 265 268 271 272 280 307 325 322 313 311 307 288 275 246 231 210 200 186 194 201 203 201 202 204 205 204 200 199 205 208 206 205 208 214 219 220 227 237
354 343 333 322 314 299 290 283 281 288 289 308 328 331 330 329 333 325 315 249 195 202 203 208 211 209 205 200 204 205 201 202 203 207 211 208 207 208 219 223 228 239 244
354 343 345 350 341 342 330 297 297 295 294 302 305 312 326 335 342 336 328 304 240 212 207 208 214 211 201 199 200 200 201 204 205 211 216 211 211 213 218 221 224 229 236
344 336 343 351 347 329 310 294 290 281 278 285 293 299 306 305 291 298 292 286 255 226 211 201 209 211 204 201 202 202 203 211 214 215 217 213 210 217 224 225 228 229 237
341 338 338 331 318 305 304 282 273 274 282 290 308 317 322 332 326 307 291 286 276 248 230 211 215 220 212 206 202 203 209 216 218 216 218 216 212 216 219 222 225 227 226
359 344 328 323 318 303 318 312 300 291 287 290 301 315 322 319 309 294 284 280 274 267 254 235 235 239 233 222 212 206 210 219 220 213 212 217 217 217 217 219 220 223 228
353 319 307 308 311 303 301 305 304 300 294 296 304 306 304 300 297 292 283 276 269 268 265 251 244 243 243 242 234 226 224 225 218 215 211 212 218 222 221 223 224 226 229
313 304 310 315 309 301 297 298 300 303 303 300 302 303 301 301 300 299 294 282 269 267 269 265 259 248 243 243 245 242 245 245 240 228 215 214 218 220 221 223 223 226 229
335 319 310 312 310 303 296 294 298 300 295 295 298 296 293 291 291 292 294 290 280 274 274 272 265 258 256 252 251 254 257 254 247 243 235 219 217 223 222 222 218 220 222